Home   Weather   Firenze   Past weeks
Flag for Italy

Past Weather in Firenze, Italy — Yesterday and Last 2 Weeks

Now
43 °F

Clear.


Feels Like: 43 °F
Forecast: 60 / 28 °F
Wind: 2 mph from North

Location: Florence / Peretola

Current Time: Apr 1, 2020 at 11:14:38 pm

Latest Report: Apr 1, 2020 at 10:20 pm


Visibility: 10 mi

Pressure: 30.07 "Hg

Humidity: 36%

Dew Point: 18 °F

Location of FirenzeLocation

Past Weather in Firenze — Graph

°F

Firenze Temperature Yesterday

Maximum temperature yesterday: 52 °F (at 12:20 am)
Minimum temperature yesterday: 41 °F (at 11:20 pm)
Average temperature yesterday: 49 °F

High & Low Weather Summary for the Past Weeks

 TemperatureHumidityPressure
High75 °F (Mar 19, 2:50 pm)100% (Mar 18, 6:20 am)30.39 "Hg (Mar 18, 6:20 am)
Low28 °F (Mar 24, 5:50 am)21% (Mar 23, 4:20 pm)29.77 "Hg (Mar 26, 3:50 pm)
Average51 °F60%30.06 "Hg
* Reported Mar 17 8:20 pm — Apr 1 9:50 pm, Firenze. Weather by CustomWeather, © 2020

Note: Actual official high and low records may vary slightly from our data, if they occured in-between our weather recording intervals... More about our weather records

Firenze Weather History for the Previous 24 Hours

Scroll right to see more
 ConditionsComfort  
Time TempWeatherWind HumidityBarometerVisibility
9:50 pm
Wed, Apr 1
45 °FClear.3 mph34%30.07 "Hg10 mi
9:20 pm43 °FClear.2 mph39%30.07 "Hg10 mi
8:50 pm45 °FClear.5 mph34%30.07 "Hg10 mi
8:20 pm46 °FPassing clouds.5 mph32%30.04 "HgN/A
7:50 pm48 °FPassing clouds.7 mph29%30.04 "HgN/A
7:20 pm48 °FSunny.10 mph32%30.04 "Hg10 mi
6:50 pm50 °FPassing clouds.13 mph30%30.04 "HgN/A
6:20 pm52 °FSunny.12 mph28%30.04 "Hg10 mi
5:50 pm52 °FSunny.13 mph28%30.04 "Hg10 mi
5:20 pm54 °FPassing clouds.10 mph28%30.04 "HgN/A
4:50 pm55 °FPassing clouds.9 mph28%30.04 "HgN/A
4:20 pm54 °FPassing clouds.10 mph26%30.07 "HgN/A
3:50 pm55 °FPassing clouds.10 mph26%30.07 "HgN/A
3:20 pm55 °FPassing clouds.12 mph28%30.07 "HgN/A
2:50 pm54 °FPassing clouds.10 mph28%30.07 "HgN/A
2:20 pm54 °FPassing clouds.13 mph28%30.09 "HgN/A
1:50 pm54 °FPassing clouds.12 mph30%30.09 "HgN/A
1:20 pm52 °FPassing clouds.13 mph32%30.09 "HgN/A
12:50 pm52 °FPassing clouds.13 mph30%30.12 "HgN/A
12:20 pm52 °FSunny.17 mph28%30.12 "Hg10 mi
11:50 am50 °FSunny.16 mph30%30.12 "Hg10 mi
11:20 am50 °FPassing clouds.17 mph28%30.12 "HgN/A
10:50 am50 °FPassing clouds.14 mph30%30.15 "HgN/A
10:20 am48 °FPassing clouds.14 mph32%30.15 "HgN/A
9:20 am46 °FPassing clouds.9 mph37%30.15 "HgN/A
8:50 am45 °FPassing clouds.6 mph46%30.15 "HgN/A
8:20 am43 °FSunny.6 mph42%30.15 "Hg10 mi
7:50 am43 °FPassing clouds.8 mph42%30.15 "HgN/A
7:20 am43 °FPassing clouds.9 mph42%30.15 "HgN/A
6:50 am41 °FPassing clouds.9 mph45%30.15 "HgN/A
6:20 am43 °FClear.10 mph42%30.15 "Hg10 mi
5:50 am43 °FClear.10 mph39%30.15 "Hg10 mi
5:20 am43 °FPassing clouds.10 mph42%30.15 "HgN/A
4:50 am41 °FPassing clouds.8 mph45%30.15 "HgN/A
4:20 am41 °FClear.8 mph49%30.15 "Hg10 mi
3:50 am43 °FClear.8 mph46%30.15 "Hg10 mi
3:20 am43 °FClear.7 mph46%30.15 "Hg10 mi
2:50 am43 °FPassing clouds.6 mph49%30.15 "HgN/A
2:20 am43 °FPassing clouds.9 mph49%30.15 "HgN/A
1:50 am39 °FPassing clouds.3 mph56%30.15 "HgN/A
1:20 am39 °FPassing clouds.6 mph52%30.15 "HgN/A
12:50 am39 °FPassing clouds.5 mph52%30.18 "HgN/A
12:20 am41 °FPassing clouds.5 mph49%30.18 "HgN/A
11:50 pm
Tue, Mar 31
41 °FClear.3 mph49%30.15 "Hg10 mi
11:20 pm41 °FClear.2 mph49%30.15 "Hg10 mi
Weather by CustomWeather, © 2020

See weather overview

Advertising